Location: Ocean City
(38.3360°N, 75.0850°W)
Time: 13:45:47
(UTC-05:00)

Explorer 11/Cluster Stage 4 - Pass Details

Date: 21 November 2019
Orbit: 467 x 1259 km, 28.8° (Epoch: 11 December)

Event Time Altitude Azimuth Distance (km) Brightness Sun altitude
Rises 17:47:48 0° 213° (SSW) 2,779 10.2 -12.5°
Reaches altitude 10° 17:50:52 10° 188° (S) 2,019 9.0 -13.1°
Maximum altitude 17:53:27 15° 155° (SSE) 1,850 8.4 -13.6°
Drops below altitude 10° 17:56:19 10° 122° (ESE) 2,290 8.6 -14.2°
Enters shadow 17:56:28 10° 121° (ESE) 2,325 8.6 -14.2°
Sets 18:00:11 0° 100° (E) 3,422 - -14.9°
